Year,Month,Day,Hour,Minute,Value (Times are PST for temperature in C)
2019,04,02,00,00,9.70
2019,04,02,00,01,9.70
2019,04,02,00,02,9.70
2019,04,02,00,03,9.70
2019,04,02,00,04,9.70
2019,04,02,00,05,9.70
2019,04,02,00,06,9.70
2019,04,02,00,07,9.70
2019,04,02,00,08,9.70
2019,04,02,00,09,9.60
2019,04,02,00,10,9.60
2019,04,02,00,11,9.60
2019,04,02,00,12,9.60
2019,04,02,00,13,9.60
2019,04,02,00,14,9.60
2019,04,02,00,15,9.60
2019,04,02,00,16,9.50
2019,04,02,00,17,9.50
2019,04,02,00,18,9.50
2019,04,02,00,19,9.50
2019,04,02,00,20,9.40
2019,04,02,00,21,9.40
2019,04,02,00,22,9.40
2019,04,02,00,23,9.40
2019,04,02,00,24,9.40
2019,04,02,00,25,9.40
2019,04,02,00,26,9.40
2019,04,02,00,27,9.40
2019,04,02,00,28,9.40
2019,04,02,00,29,9.30
2019,04,02,00,30,9.30
2019,04,02,00,31,9.30
2019,04,02,00,32,9.30
2019,04,02,00,33,9.30
2019,04,02,00,34,9.30
2019,04,02,00,35,9.30
2019,04,02,00,36,9.20
2019,04,02,00,37,9.20
2019,04,02,00,38,9.20
2019,04,02,00,39,9.20
2019,04,02,00,40,9.20
2019,04,02,00,41,9.20
2019,04,02,00,42,9.20
2019,04,02,00,43,9.20
2019,04,02,00,44,9.20
2019,04,02,00,45,9.20
2019,04,02,00,46,9.20
2019,04,02,00,47,9.10
2019,04,02,00,48,9.10
2019,04,02,00,49,9.10
2019,04,02,00,50,9.10
2019,04,02,00,51,9.10
2019,04,02,00,52,9.10
2019,04,02,00,53,9.10
2019,04,02,00,54,9.10
2019,04,02,00,55,9.00
2019,04,02,00,56,9.00
2019,04,02,00,57,9.00
2019,04,02,00,58,9.00
2019,04,02,00,59,9.00
2019,04,02,01,00,8.90
2019,04,02,01,01,8.90
2019,04,02,01,02,8.90
2019,04,02,01,03,8.90
2019,04,02,01,04,8.80
2019,04,02,01,05,8.80
2019,04,02,01,06,8.80
2019,04,02,01,07,8.80
2019,04,02,01,08,8.80
2019,04,02,01,09,8.80
2019,04,02,01,10,8.80
2019,04,02,01,11,8.80
2019,04,02,01,12,8.80
2019,04,02,01,13,8.70
2019,04,02,01,14,8.70
2019,04,02,01,15,8.70
2019,04,02,01,16,8.70
2019,04,02,01,17,8.70
2019,04,02,01,18,8.70
2019,04,02,01,19,8.70
2019,04,02,01,20,8.60
2019,04,02,01,21,8.60
2019,04,02,01,22,8.60
2019,04,02,01,23,8.60
2019,04,02,01,24,8.60
2019,04,02,01,25,8.60
2019,04,02,01,26,8.60
2019,04,02,01,27,8.50
2019,04,02,01,28,8.40
2019,04,02,01,29,8.40
2019,04,02,01,30,8.40
2019,04,02,01,31,8.40
2019,04,02,01,32,8.50
2019,04,02,01,33,8.50
2019,04,02,01,34,8.60
2019,04,02,01,35,8.50
2019,04,02,01,36,8.50
2019,04,02,01,37,8.50
2019,04,02,01,38,8.40
2019,04,02,01,39,8.40
2019,04,02,01,40,8.40
2019,04,02,01,41,8.40
2019,04,02,01,42,8.40
2019,04,02,01,43,8.40
2019,04,02,01,44,8.40
2019,04,02,01,45,8.40
2019,04,02,01,46,8.40
2019,04,02,01,47,8.40
2019,04,02,01,48,8.40
2019,04,02,01,49,8.40
2019,04,02,01,50,8.40
2019,04,02,01,51,8.40
2019,04,02,01,52,8.40
2019,04,02,01,53,8.40
2019,04,02,01,54,8.40
2019,04,02,01,55,8.40
2019,04,02,01,56,8.40
2019,04,02,01,57,8.40
2019,04,02,01,58,8.30
2019,04,02,01,59,8.30
2019,04,02,02,00,8.30
2019,04,02,02,01,8.30
2019,04,02,02,02,8.30
2019,04,02,02,03,8.30
2019,04,02,02,04,8.30
2019,04,02,02,05,8.20
2019,04,02,02,06,8.20
2019,04,02,02,07,8.20
2019,04,02,02,08,8.20
2019,04,02,02,09,8.20
2019,04,02,02,10,8.20
2019,04,02,02,11,8.20
2019,04,02,02,12,8.20
2019,04,02,02,13,8.20
2019,04,02,02,14,8.10
2019,04,02,02,15,8.10
2019,04,02,02,16,8.10
2019,04,02,02,17,8.10
2019,04,02,02,18,8.10
2019,04,02,02,19,8.00
2019,04,02,02,20,8.00
2019,04,02,02,21,8.00
2019,04,02,02,22,8.10
2019,04,02,02,23,8.10
2019,04,02,02,24,8.10
2019,04,02,02,25,8.10
2019,04,02,02,26,8.10
2019,04,02,02,27,8.20
2019,04,02,02,28,8.20
2019,04,02,02,29,8.30
2019,04,02,02,30,8.30
2019,04,02,02,31,8.30
2019,04,02,02,32,8.40
2019,04,02,02,33,8.50
2019,04,02,02,34,8.60
2019,04,02,02,35,8.70
2019,04,02,02,36,8.90
2019,04,02,02,37,9.00
2019,04,02,02,38,9.10
2019,04,02,02,39,9.20
2019,04,02,02,40,9.30
2019,04,02,02,41,9.40
2019,04,02,02,42,9.50
2019,04,02,02,43,9.60
2019,04,02,02,44,9.60
2019,04,02,02,45,9.70
2019,04,02,02,46,9.80
2019,04,02,02,47,9.80
2019,04,02,02,48,9.90
2019,04,02,02,49,10.00
2019,04,02,02,50,10.00
2019,04,02,02,51,10.10
2019,04,02,02,52,10.20
2019,04,02,02,53,10.20
2019,04,02,02,54,10.30
2019,04,02,02,55,10.30
2019,04,02,02,56,10.30
2019,04,02,02,57,10.30
2019,04,02,02,58,10.30
2019,04,02,02,59,10.30
2019,04,02,03,00,10.30
2019,04,02,03,01,10.30
2019,04,02,03,02,10.40
2019,04,02,03,03,10.40
2019,04,02,03,04,10.40
2019,04,02,03,05,10.40
2019,04,02,03,06,10.40
2019,04,02,03,07,10.40
2019,04,02,03,08,10.40
2019,04,02,03,09,10.30
2019,04,02,03,10,10.30
2019,04,02,03,11,10.30
2019,04,02,03,12,10.30
2019,04,02,03,13,10.30
2019,04,02,03,14,10.30
2019,04,02,03,15,10.30
2019,04,02,03,16,10.30
2019,04,02,03,17,10.30
2019,04,02,03,18,10.30
2019,04,02,03,19,10.30
2019,04,02,03,20,10.30
2019,04,02,03,21,10.40
2019,04,02,03,22,10.40
2019,04,02,03,23,10.40
2019,04,02,03,24,10.40
2019,04,02,03,25,10.40
2019,04,02,03,26,10.40
2019,04,02,03,27,10.50
2019,04,02,03,28,10.50
2019,04,02,03,29,10.60
2019,04,02,03,30,10.60
2019,04,02,03,31,10.70
2019,04,02,03,32,10.80
2019,04,02,03,33,10.80
2019,04,02,03,34,10.80
2019,04,02,03,35,10.90
2019,04,02,03,36,10.90
2019,04,02,03,37,10.90
2019,04,02,03,38,10.90
2019,04,02,03,39,10.90
2019,04,02,03,40,10.90
2019,04,02,03,41,10.90
2019,04,02,03,42,10.90
2019,04,02,03,43,10.90
2019,04,02,03,44,10.90
2019,04,02,03,45,10.90
2019,04,02,03,46,10.90
2019,04,02,03,47,10.90
2019,04,02,03,48,10.90
2019,04,02,03,49,10.90
2019,04,02,03,50,10.90
2019,04,02,03,51,10.90
2019,04,02,03,52,10.90
2019,04,02,03,53,10.90
2019,04,02,03,54,10.90
2019,04,02,03,55,10.80
2019,04,02,03,56,10.80
2019,04,02,03,57,10.80
2019,04,02,03,58,10.80
2019,04,02,03,59,10.90
2019,04,02,04,00,10.90
2019,04,02,04,01,10.90
2019,04,02,04,02,10.90
2019,04,02,04,03,10.90
2019,04,02,04,04,10.90
2019,04,02,04,05,10.90
2019,04,02,04,06,11.00
2019,04,02,04,07,11.00
2019,04,02,04,08,11.00
2019,04,02,04,09,11.00
2019,04,02,04,10,10.90
2019,04,02,04,11,10.90
2019,04,02,04,12,10.90
2019,04,02,04,13,10.90
2019,04,02,04,14,10.90
2019,04,02,04,15,10.90
2019,04,02,04,16,10.90
2019,04,02,04,17,10.90
2019,04,02,04,18,10.90
2019,04,02,04,19,10.90
2019,04,02,04,20,10.90
2019,04,02,04,21,10.90
2019,04,02,04,22,10.90
2019,04,02,04,23,10.90
2019,04,02,04,24,10.90
2019,04,02,04,25,10.90
2019,04,02,04,26,10.90
2019,04,02,04,27,10.90
2019,04,02,04,28,10.90
2019,04,02,04,29,10.90
2019,04,02,04,30,10.90
2019,04,02,04,31,10.90
2019,04,02,04,32,10.90
2019,04,02,04,33,10.90
2019,04,02,04,34,10.80
2019,04,02,04,35,10.90
2019,04,02,04,36,10.90
2019,04,02,04,37,10.90
2019,04,02,04,38,10.80
2019,04,02,04,39,10.90
2019,04,02,04,40,10.90
2019,04,02,04,41,10.90
2019,04,02,04,42,10.90
2019,04,02,04,43,10.90
2019,04,02,04,44,11.00
2019,04,02,04,45,11.00
2019,04,02,04,46,11.00
2019,04,02,04,47,11.00
2019,04,02,04,48,11.10
2019,04,02,04,49,11.10
2019,04,02,04,50,11.10
2019,04,02,04,51,11.10
2019,04,02,04,52,11.10
2019,04,02,04,53,11.20
2019,04,02,04,54,11.20
2019,04,02,04,55,11.20
2019,04,02,04,56,11.20
2019,04,02,04,57,11.20
2019,04,02,04,58,11.20
2019,04,02,04,59,11.20
2019,04,02,05,00,11.10
2019,04,02,05,01,11.10
2019,04,02,05,02,11.10
2019,04,02,05,03,11.10
2019,04,02,05,04,11.20
2019,04,02,05,05,11.20
2019,04,02,05,06,11.20
2019,04,02,05,07,11.20
2019,04,02,05,08,11.20
2019,04,02,05,09,11.20
2019,04,02,05,10,11.20
2019,04,02,05,11,11.20
2019,04,02,05,12,11.20
2019,04,02,05,13,11.20
2019,04,02,05,14,11.20
2019,04,02,05,15,11.20
2019,04,02,05,16,11.20
2019,04,02,05,17,11.10
2019,04,02,05,18,11.10
2019,04,02,05,19,11.10
2019,04,02,05,20,11.10
2019,04,02,05,21,11.10
2019,04,02,05,22,11.10
2019,04,02,05,23,11.10
2019,04,02,05,24,11.10
2019,04,02,05,25,11.10
2019,04,02,05,26,11.10
2019,04,02,05,27,11.10
2019,04,02,05,28,11.10
2019,04,02,05,29,11.00
2019,04,02,05,30,11.00
2019,04,02,05,31,11.00
2019,04,02,05,32,11.10
2019,04,02,05,33,11.10
2019,04,02,05,34,11.10
2019,04,02,05,35,11.10
2019,04,02,05,36,11.20
2019,04,02,05,37,11.20
2019,04,02,05,38,11.20
2019,04,02,05,39,11.20
2019,04,02,05,40,11.30
2019,04,02,05,41,11.30
2019,04,02,05,42,11.30
2019,04,02,05,43,11.20
2019,04,02,05,44,11.20
2019,04,02,05,45,11.20
2019,04,02,05,46,11.20
2019,04,02,05,47,11.20
2019,04,02,05,48,11.20
2019,04,02,05,49,11.20
2019,04,02,05,50,11.20
2019,04,02,05,51,11.10
2019,04,02,05,52,11.10
2019,04,02,05,53,11.10
2019,04,02,05,54,11.10
2019,04,02,05,55,11.00
2019,04,02,05,56,10.90
2019,04,02,05,57,10.90
2019,04,02,05,58,10.90
2019,04,02,05,59,10.90
2019,04,02,06,00,10.90
2019,04,02,06,01,10.90
2019,04,02,06,02,10.90
2019,04,02,06,03,10.80
2019,04,02,06,04,10.80
2019,04,02,06,05,10.80
2019,04,02,06,06,10.70
2019,04,02,06,07,10.70
2019,04,02,06,08,10.70
2019,04,02,06,09,10.60
2019,04,02,06,10,10.60
2019,04,02,06,11,10.50
2019,04,02,06,12,10.50
2019,04,02,06,13,10.50
2019,04,02,06,14,10.40
2019,04,02,06,15,10.40
2019,04,02,06,16,10.40
2019,04,02,06,17,10.40
2019,04,02,06,18,10.40
2019,04,02,06,19,10.50
2019,04,02,06,20,10.50
2019,04,02,06,21,10.40
2019,04,02,06,22,10.40
2019,04,02,06,23,10.40
2019,04,02,06,24,10.40
2019,04,02,06,25,10.30
2019,04,02,06,26,10.30
2019,04,02,06,27,10.30
2019,04,02,06,28,10.30
2019,04,02,06,29,10.20
2019,04,02,06,30,10.20
2019,04,02,06,31,10.10
2019,04,02,06,32,10.10
2019,04,02,06,33,10.10
2019,04,02,06,34,10.10
2019,04,02,06,35,10.10
2019,04,02,06,36,10.20
2019,04,02,06,37,10.20
2019,04,02,06,38,10.20
2019,04,02,06,39,10.20
2019,04,02,06,40,10.30
2019,04,02,06,41,10.30
2019,04,02,06,42,10.30
2019,04,02,06,43,10.30
2019,04,02,06,44,10.30
2019,04,02,06,45,10.30
2019,04,02,06,46,10.30
2019,04,02,06,47,10.30
2019,04,02,06,48,10.30
2019,04,02,06,49,10.30
2019,04,02,06,50,10.30
2019,04,02,06,51,10.30
2019,04,02,06,52,10.30
2019,04,02,06,53,10.30
2019,04,02,06,54,10.30
2019,04,02,06,55,10.30
2019,04,02,06,56,10.30
2019,04,02,06,57,10.30
2019,04,02,06,58,10.30
2019,04,02,06,59,10.20
2019,04,02,07,00,10.20
2019,04,02,07,01,10.30
2019,04,02,07,02,10.30
2019,04,02,07,03,10.30
2019,04,02,07,04,10.30
2019,04,02,07,05,10.40
2019,04,02,07,06,10.40
2019,04,02,07,07,10.40
2019,04,02,07,08,10.30
2019,04,02,07,09,10.30
2019,04,02,07,10,10.30
2019,04,02,07,11,10.30
2019,04,02,07,12,10.30
2019,04,02,07,13,10.30
2019,04,02,07,14,10.30
2019,04,02,07,15,10.30
2019,04,02,07,16,10.30
2019,04,02,07,17,10.30
2019,04,02,07,18,10.30
2019,04,02,07,19,10.30
2019,04,02,07,20,10.30
2019,04,02,07,21,10.30
2019,04,02,07,22,10.20
2019,04,02,07,23,10.20
2019,04,02,07,24,10.20
2019,04,02,07,25,10.20
2019,04,02,07,26,10.20
2019,04,02,07,27,10.20
2019,04,02,07,28,10.20
2019,04,02,07,29,10.20
2019,04,02,07,30,10.20
2019,04,02,07,31,10.20
2019,04,02,07,32,10.20
2019,04,02,07,33,10.20
2019,04,02,07,34,10.20
2019,04,02,07,35,10.30
2019,04,02,07,36,10.30
2019,04,02,07,37,10.30
2019,04,02,07,38,10.30
2019,04,02,07,39,10.30
2019,04,02,07,40,10.30
2019,04,02,07,41,10.40
2019,04,02,07,42,10.40
2019,04,02,07,43,10.40
2019,04,02,07,44,10.40
2019,04,02,07,45,10.40
2019,04,02,07,46,10.40
2019,04,02,07,47,10.40
2019,04,02,07,48,10.50
2019,04,02,07,49,10.50
2019,04,02,07,50,10.60
2019,04,02,07,51,10.60
2019,04,02,07,52,10.60
2019,04,02,07,53,10.60
2019,04,02,07,54,10.70
2019,04,02,07,55,10.70
2019,04,02,07,56,10.70
2019,04,02,07,57,10.70
2019,04,02,07,58,10.70
2019,04,02,07,59,10.70
2019,04,02,08,00,10.80
2019,04,02,08,01,10.80
2019,04,02,08,02,10.90
2019,04,02,08,03,10.90
2019,04,02,08,04,11.00
2019,04,02,08,05,11.00
2019,04,02,08,06,11.10
2019,04,02,08,07,11.10
2019,04,02,08,08,11.10
2019,04,02,08,09,11.20
2019,04,02,08,10,11.20
2019,04,02,08,11,11.30
2019,04,02,08,12,11.30
2019,04,02,08,13,11.40
2019,04,02,08,14,11.50
2019,04,02,08,15,11.60
2019,04,02,08,16,11.60
2019,04,02,08,17,11.70
2019,04,02,08,18,11.70
2019,04,02,08,19,11.80
2019,04,02,08,20,11.90
2019,04,02,08,21,12.00
2019,04,02,08,22,12.10
2019,04,02,08,23,12.20
2019,04,02,08,24,12.20
2019,04,02,08,25,12.30
2019,04,02,08,26,12.40
2019,04,02,08,27,12.50
2019,04,02,08,28,12.60
2019,04,02,08,29,12.70
2019,04,02,08,30,12.80
2019,04,02,08,31,12.90
2019,04,02,08,32,13.00
2019,04,02,08,33,13.00
2019,04,02,08,34,13.00
2019,04,02,08,35,13.10
2019,04,02,08,36,13.10
2019,04,02,08,37,13.10
2019,04,02,08,38,13.20
2019,04,02,08,39,13.20
2019,04,02,08,40,13.20
2019,04,02,08,41,13.30
2019,04,02,08,42,13.30
2019,04,02,08,43,13.30
2019,04,02,08,44,13.30
2019,04,02,08,45,13.40
2019,04,02,08,46,13.40
2019,04,02,08,47,13.40
2019,04,02,08,48,13.50
2019,04,02,08,49,13.50
2019,04,02,08,50,13.60
2019,04,02,08,51,13.60
2019,04,02,08,52,13.60
2019,04,02,08,53,13.60
2019,04,02,08,54,13.60
2019,04,02,08,55,13.60
2019,04,02,08,56,13.70
2019,04,02,08,57,13.70
2019,04,02,08,58,13.70
2019,04,02,08,59,13.70
2019,04,02,09,00,13.70
2019,04,02,09,01,13.80
2019,04,02,09,02,13.80
2019,04,02,09,03,13.80
2019,04,02,09,04,13.80
2019,04,02,09,05,13.80
2019,04,02,09,06,13.90
2019,04,02,09,07,13.90
2019,04,02,09,08,13.90
2019,04,02,09,09,13.90
2019,04,02,09,10,13.90
2019,04,02,09,11,13.90
2019,04,02,09,12,14.00
2019,04,02,09,13,14.00
2019,04,02,09,14,14.00
2019,04,02,09,15,14.00
2019,04,02,09,16,14.10
2019,04,02,09,17,14.10
2019,04,02,09,18,14.10
2019,04,02,09,19,14.10
2019,04,02,09,20,14.10
2019,04,02,09,21,14.10
2019,04,02,09,22,14.20
2019,04,02,09,23,14.20
2019,04,02,09,24,14.20
2019,04,02,09,25,14.20
2019,04,02,09,26,14.20
2019,04,02,09,27,14.30
2019,04,02,09,28,14.30
2019,04,02,09,29,14.30
2019,04,02,09,30,14.30
2019,04,02,09,31,14.30
2019,04,02,09,32,14.30
2019,04,02,09,33,14.40
2019,04,02,09,34,14.40
2019,04,02,09,35,14.40
2019,04,02,09,36,14.40
2019,04,02,09,37,14.40
2019,04,02,09,38,14.40
2019,04,02,09,39,14.50
2019,04,02,09,40,14.50
2019,04,02,09,41,14.50
2019,04,02,09,42,14.50
2019,04,02,09,43,14.60
2019,04,02,09,44,14.60
2019,04,02,09,45,14.60
2019,04,02,09,46,14.70
2019,04,02,09,47,14.70
2019,04,02,09,48,14.70
2019,04,02,09,49,14.70
2019,04,02,09,50,14.70
2019,04,02,09,51,14.70
2019,04,02,09,52,14.70
2019,04,02,09,53,14.80
2019,04,02,09,54,14.80
2019,04,02,09,55,14.80
2019,04,02,09,56,14.80
2019,04,02,09,57,14.90
2019,04,02,09,58,14.90
2019,04,02,09,59,15.00
2019,04,02,10,00,15.00
2019,04,02,10,01,15.00
2019,04,02,10,02,15.00
2019,04,02,10,03,15.00
2019,04,02,10,04,15.00
2019,04,02,10,05,15.00
2019,04,02,10,06,15.10
2019,04,02,10,07,15.10
2019,04,02,10,08,15.20
2019,04,02,10,09,15.20
2019,04,02,10,10,15.10
2019,04,02,10,11,15.10
2019,04,02,10,12,15.20
2019,04,02,10,13,15.20
2019,04,02,10,14,15.20
2019,04,02,10,15,15.20
2019,04,02,10,16,15.20
2019,04,02,10,17,15.20
2019,04,02,10,18,15.20
2019,04,02,10,19,15.30
2019,04,02,10,20,15.30
2019,04,02,10,21,15.30
2019,04,02,10,22,15.30
2019,04,02,10,23,15.30
2019,04,02,10,24,15.30
2019,04,02,10,25,15.30
2019,04,02,10,26,15.30
2019,04,02,10,27,15.30
2019,04,02,10,28,15.30
2019,04,02,10,29,15.30
2019,04,02,10,30,15.30
2019,04,02,10,31,15.30
2019,04,02,10,32,15.40
2019,04,02,10,33,15.40
2019,04,02,10,34,15.40
2019,04,02,10,35,15.50
2019,04,02,10,36,15.60
2019,04,02,10,37,15.60
2019,04,02,10,38,15.60
2019,04,02,10,39,15.60
2019,04,02,10,40,15.60
2019,04,02,10,41,15.60
2019,04,02,10,42,15.60
2019,04,02,10,43,15.60
2019,04,02,10,44,15.60
2019,04,02,10,45,15.60
2019,04,02,10,46,15.60
2019,04,02,10,47,15.60
2019,04,02,10,48,15.60
2019,04,02,10,49,15.60
2019,04,02,10,50,15.60
2019,04,02,10,51,15.60
2019,04,02,10,52,15.60
2019,04,02,10,53,15.60
2019,04,02,10,54,15.70
2019,04,02,10,55,15.70
2019,04,02,10,56,15.70
2019,04,02,10,57,15.80
2019,04,02,10,58,15.90
2019,04,02,10,59,15.90
2019,04,02,11,00,16.00
2019,04,02,11,01,16.00
2019,04,02,11,02,16.00
2019,04,02,11,03,15.90
2019,04,02,11,04,15.90
2019,04,02,11,05,15.90
2019,04,02,11,06,16.00
2019,04,02,11,07,16.00
2019,04,02,11,08,16.10
2019,04,02,11,09,16.10
2019,04,02,11,10,16.10
2019,04,02,11,11,16.10
2019,04,02,11,12,16.10
2019,04,02,11,13,16.00
2019,04,02,11,14,16.00
2019,04,02,11,15,16.10
2019,04,02,11,16,16.10
2019,04,02,11,17,16.20
2019,04,02,11,18,16.20
2019,04,02,11,19,16.30
2019,04,02,11,20,16.40
2019,04,02,11,21,16.50
2019,04,02,11,22,16.50
2019,04,02,11,23,16.60
2019,04,02,11,24,16.60
2019,04,02,11,25,16.70
2019,04,02,11,26,16.60
2019,04,02,11,27,16.60
2019,04,02,11,28,16.40
2019,04,02,11,29,16.40
2019,04,02,11,30,16.30
2019,04,02,11,31,16.30
2019,04,02,11,32,16.30
2019,04,02,11,33,16.40
2019,04,02,11,34,16.40
2019,04,02,11,35,16.40
2019,04,02,11,36,16.40
2019,04,02,11,37,16.40
2019,04,02,11,38,16.30
2019,04,02,11,39,16.20
2019,04,02,11,40,16.20
2019,04,02,11,41,16.20
2019,04,02,11,42,16.20
2019,04,02,11,43,16.20
2019,04,02,11,44,16.20
2019,04,02,11,45,16.20
2019,04,02,11,46,16.20
2019,04,02,11,47,16.20
2019,04,02,11,48,16.20
2019,04,02,11,49,16.30
2019,04,02,11,50,16.30
2019,04,02,11,51,16.30
2019,04,02,11,52,16.30
2019,04,02,11,53,16.30
2019,04,02,11,54,16.30
2019,04,02,11,55,16.30
2019,04,02,11,56,16.30
2019,04,02,11,57,16.30
2019,04,02,11,58,16.20
2019,04,02,11,59,16.20
2019,04,02,12,00,16.20
2019,04,02,12,01,16.20
2019,04,02,12,02,16.30
2019,04,02,12,03,16.40
2019,04,02,12,04,16.40
2019,04,02,12,05,16.50
2019,04,02,12,06,16.50
2019,04,02,12,07,16.60
2019,04,02,12,08,16.60
2019,04,02,12,09,16.50
2019,04,02,12,10,16.50
2019,04,02,12,11,16.40
2019,04,02,12,12,16.50
2019,04,02,12,13,16.50
2019,04,02,12,14,16.50
2019,04,02,12,15,16.60
2019,04,02,12,16,16.60
2019,04,02,12,17,16.70
2019,04,02,12,18,16.80
2019,04,02,12,19,16.80
2019,04,02,12,20,16.80
2019,04,02,12,21,16.80
2019,04,02,12,22,16.80
2019,04,02,12,23,16.90
2019,04,02,12,24,16.90
2019,04,02,12,25,16.80
2019,04,02,12,26,16.80
2019,04,02,12,27,16.90
2019,04,02,12,28,16.90
2019,04,02,12,29,16.90
2019,04,02,12,30,16.90
2019,04,02,12,31,16.90
2019,04,02,12,32,16.90
2019,04,02,12,33,17.00
2019,04,02,12,34,17.00
2019,04,02,12,35,17.10
2019,04,02,12,36,17.10
2019,04,02,12,37,17.20
2019,04,02,12,38,17.20
2019,04,02,12,39,17.20
2019,04,02,12,40,17.20
2019,04,02,12,41,17.20
2019,04,02,12,42,17.20
2019,04,02,12,43,17.20
2019,04,02,12,44,17.30
2019,04,02,12,45,17.30
2019,04,02,12,46,17.30
2019,04,02,12,47,17.30
2019,04,02,12,48,17.30
2019,04,02,12,49,17.30
2019,04,02,12,50,17.30
2019,04,02,12,51,17.20
2019,04,02,12,52,17.10
2019,04,02,12,53,17.10
2019,04,02,12,54,17.10
2019,04,02,12,55,17.20
2019,04,02,12,56,17.20
2019,04,02,12,57,17.20
2019,04,02,12,58,17.20
2019,04,02,12,59,17.20
2019,04,02,13,00,17.20
2019,04,02,13,01,17.20
2019,04,02,13,02,17.20
2019,04,02,13,03,17.30
2019,04,02,13,04,17.30
2019,04,02,13,05,17.40
2019,04,02,13,06,17.40
2019,04,02,13,07,17.50
2019,04,02,13,08,17.50
2019,04,02,13,09,17.60
2019,04,02,13,10,17.70
2019,04,02,13,11,17.80
2019,04,02,13,12,17.80
2019,04,02,13,13,17.80
2019,04,02,13,14,17.80
2019,04,02,13,15,17.80
2019,04,02,13,16,17.80
2019,04,02,13,17,17.80
2019,04,02,13,18,17.80
2019,04,02,13,19,17.80
2019,04,02,13,20,17.90
2019,04,02,13,21,18.00
2019,04,02,13,22,18.00
2019,04,02,13,23,18.10
2019,04,02,13,24,18.10
2019,04,02,13,25,18.20
2019,04,02,13,26,18.20
2019,04,02,13,27,18.30
2019,04,02,13,28,18.30
2019,04,02,13,29,18.30
2019,04,02,13,30,18.20
2019,04,02,13,31,18.10
2019,04,02,13,32,18.00
2019,04,02,13,33,18.00
2019,04,02,13,34,18.00
2019,04,02,13,35,18.00
2019,04,02,13,36,18.00
2019,04,02,13,37,18.10
2019,04,02,13,38,18.10
2019,04,02,13,39,18.10
2019,04,02,13,40,18.10
2019,04,02,13,41,18.10
2019,04,02,13,42,18.10
2019,04,02,13,43,18.20
2019,04,02,13,44,18.20
2019,04,02,13,45,18.30
2019,04,02,13,46,18.30
2019,04,02,13,47,18.30
2019,04,02,13,48,18.30
2019,04,02,13,49,18.40
2019,04,02,13,50,18.30
2019,04,02,13,51,18.20
2019,04,02,13,52,18.10
2019,04,02,13,53,18.10
2019,04,02,13,54,18.10
2019,04,02,13,55,18.10
2019,04,02,13,56,18.10
2019,04,02,13,57,18.20
2019,04,02,13,58,18.20
2019,04,02,13,59,18.30
2019,04,02,14,00,18.20
2019,04,02,14,01,18.20
2019,04,02,14,02,18.20
2019,04,02,14,03,18.30
2019,04,02,14,04,18.40
2019,04,02,14,05,18.40
2019,04,02,14,06,18.50
2019,04,02,14,07,18.50
2019,04,02,14,08,18.50
2019,04,02,14,09,18.50
2019,04,02,14,10,18.40
2019,04,02,14,11,18.40
2019,04,02,14,12,18.40
2019,04,02,14,13,18.40
2019,04,02,14,14,18.40
2019,04,02,14,15,18.40
2019,04,02,14,16,18.40
2019,04,02,14,17,18.50
2019,04,02,14,18,18.50
2019,04,02,14,19,18.50
2019,04,02,14,20,18.50
2019,04,02,14,21,18.60
2019,04,02,14,22,18.60
2019,04,02,14,23,18.60
2019,04,02,14,24,18.60
2019,04,02,14,25,18.60
2019,04,02,14,26,18.50
2019,04,02,14,27,18.40
2019,04,02,14,28,18.40
2019,04,02,14,29,18.40
2019,04,02,14,30,18.40
2019,04,02,14,31,18.40
2019,04,02,14,32,18.40
2019,04,02,14,33,18.50
2019,04,02,14,34,18.50
2019,04,02,14,35,18.50
2019,04,02,14,36,18.60
2019,04,02,14,37,18.60
2019,04,02,14,38,18.60
2019,04,02,14,39,18.60
2019,04,02,14,40,18.50
2019,04,02,14,41,18.40
2019,04,02,14,42,18.40
2019,04,02,14,43,18.40
2019,04,02,14,44,18.30
2019,04,02,14,45,18.30
2019,04,02,14,46,18.30
2019,04,02,14,47,18.30
2019,04,02,14,48,18.40
2019,04,02,14,49,18.40
2019,04,02,14,50,18.40
2019,04,02,14,51,18.50
2019,04,02,14,52,18.50
2019,04,02,14,53,18.50
2019,04,02,14,54,18.50
2019,04,02,14,55,18.50
2019,04,02,14,56,18.50
2019,04,02,14,57,18.50
2019,04,02,14,58,18.50
2019,04,02,14,59,18.60
2019,04,02,15,00,18.60
2019,04,02,15,01,18.60
2019,04,02,15,02,18.60
2019,04,02,15,03,18.70
2019,04,02,15,04,18.70
2019,04,02,15,05,18.70
2019,04,02,15,06,18.70
2019,04,02,15,07,18.80
2019,04,02,15,08,18.80
2019,04,02,15,09,18.80
2019,04,02,15,10,18.90
2019,04,02,15,11,19.00
2019,04,02,15,12,19.00
2019,04,02,15,13,19.00
2019,04,02,15,14,19.00
2019,04,02,15,15,18.90
2019,04,02,15,16,18.90
2019,04,02,15,17,18.90
2019,04,02,15,18,18.90
2019,04,02,15,19,18.90
2019,04,02,15,20,18.90
2019,04,02,15,21,18.90
2019,04,02,15,22,18.90
2019,04,02,15,23,18.90
2019,04,02,15,24,18.90
2019,04,02,15,25,18.90
2019,04,02,15,26,18.90
2019,04,02,15,27,18.90
2019,04,02,15,28,19.00
2019,04,02,15,29,19.00
2019,04,02,15,30,19.00
2019,04,02,15,31,19.10
2019,04,02,15,32,19.00
2019,04,02,15,33,18.90
2019,04,02,15,34,18.90
2019,04,02,15,35,18.80
2019,04,02,15,36,18.80
2019,04,02,15,37,18.70
2019,04,02,15,38,18.70
2019,04,02,15,39,18.70
2019,04,02,15,40,18.70
2019,04,02,15,41,18.70
2019,04,02,15,42,18.60
2019,04,02,15,43,18.60
2019,04,02,15,44,18.60
2019,04,02,15,45,18.60
2019,04,02,15,46,18.50
2019,04,02,15,47,18.40
2019,04,02,15,48,18.40
2019,04,02,15,49,18.40
2019,04,02,15,50,18.40
2019,04,02,15,51,18.40
2019,04,02,15,52,18.40
2019,04,02,15,53,18.40
2019,04,02,15,54,18.40
2019,04,02,15,55,18.40
2019,04,02,15,56,18.40
2019,04,02,15,57,18.30
2019,04,02,15,58,18.30
2019,04,02,15,59,18.30
2019,04,02,16,00,18.20
2019,04,02,16,01,18.20
2019,04,02,16,02,18.20
2019,04,02,16,03,18.20
2019,04,02,16,04,18.20
2019,04,02,16,05,18.20
2019,04,02,16,06,18.10
2019,04,02,16,07,18.10
2019,04,02,16,08,18.10
2019,04,02,16,09,18.10
2019,04,02,16,10,18.10
2019,04,02,16,11,18.10
2019,04,02,16,12,18.20
2019,04,02,16,13,18.20
2019,04,02,16,14,18.20
2019,04,02,16,15,18.10
2019,04,02,16,16,18.10
2019,04,02,16,17,18.10
2019,04,02,16,18,18.20
2019,04,02,16,19,18.20
2019,04,02,16,20,18.20
2019,04,02,16,21,18.20
2019,04,02,16,22,18.20
2019,04,02,16,23,18.20
2019,04,02,16,24,18.20
2019,04,02,16,25,18.20
2019,04,02,16,26,18.20
2019,04,02,16,27,18.30
2019,04,02,16,28,18.30
2019,04,02,16,29,18.30
2019,04,02,16,30,18.30
2019,04,02,16,31,18.30
2019,04,02,16,32,18.40
2019,04,02,16,33,18.30
2019,04,02,16,34,18.30
2019,04,02,16,35,18.20
2019,04,02,16,36,18.20
2019,04,02,16,37,18.20
2019,04,02,16,38,18.20
2019,04,02,16,39,18.20
2019,04,02,16,40,18.20
2019,04,02,16,41,18.20
2019,04,02,16,42,18.10
2019,04,02,16,43,18.10
2019,04,02,16,44,18.10
2019,04,02,16,45,18.00
2019,04,02,16,46,18.00
2019,04,02,16,47,17.90
2019,04,02,16,48,17.90
2019,04,02,16,49,17.90
2019,04,02,16,50,17.90
2019,04,02,16,51,17.90
2019,04,02,16,52,17.90
2019,04,02,16,53,17.90
2019,04,02,16,54,17.90
2019,04,02,16,55,17.80
2019,04,02,16,56,17.80
2019,04,02,16,57,17.80
2019,04,02,16,58,17.80
2019,04,02,16,59,17.80
2019,04,02,17,00,17.80
2019,04,02,17,01,17.80
2019,04,02,17,02,17.70
2019,04,02,17,03,17.70
2019,04,02,17,04,17.70
2019,04,02,17,05,17.70
2019,04,02,17,06,17.70
2019,04,02,17,07,17.60
2019,04,02,17,08,17.60
2019,04,02,17,09,17.50
2019,04,02,17,10,17.50
2019,04,02,17,11,17.40
2019,04,02,17,12,17.40
2019,04,02,17,13,17.30
2019,04,02,17,14,17.30
2019,04,02,17,15,17.30
2019,04,02,17,16,17.30
2019,04,02,17,17,17.30
2019,04,02,17,18,17.30
2019,04,02,17,19,17.20
2019,04,02,17,20,17.20
2019,04,02,17,21,17.20
2019,04,02,17,22,17.20
2019,04,02,17,23,17.20
2019,04,02,17,24,17.20
2019,04,02,17,25,17.20
2019,04,02,17,26,17.20